Tracking 19636 objects as of 24-May-2019
HD Live streaming from Space Station
objects crossing your sky now

GLOBALSTAR M079

Track GLOBALSTAR M079 now!
10-day predictions
GLOBALSTAR M079 is classified as:


NORAD ID: 37188
Int'l Code: 2010-054A
Perigee: 1,419.9 km
Apogee: 1,421.6 km
Inclination: 52.0 °
Period: 114.1 minutes
Semi major axis: 7791 km
RCS: 5.1171 m2 (large)
Launch date: October 19, 2010
Source: Globalstar (GLOB)
Launch site: TYURATAM MISSILE AND SPACE COMPLEX (TTMTR)
aabbcc
Your satellite tracking list
Your tracking list is empty




NASA's NSSDC Master Catalog

Two Line Element Set (TLE):
1 37188U 10054A   19144.14421591 -.00000108  00000-0 -22406-4 0  9992
2 37188  52.0062  45.7950 0001044  65.5255  46.5567 12.62265833397270
Source of the keplerian elements: AFSPC